Hourly Data Report for October 15, 2016

All times are specified in Local Standard Time (LST). Add 1 hour to adjust for Daylight Saving Time where and when it is observed.

RANKIN INLET A
NUNAVUT

62°48'38.000" N
92°06'53.000" W
32.30 m
2303405
71083
YRT

Download Data

Hourly Data (October 2016)
Hourly Data Report for October 15, 2016
Temp Definition
°C
Dew Point Temp Definition
°C
Rel Hum Definition
%
Wind Dir Definition
10's deg

Wind Spd Definition
km/h
Visibility Definition
km
Stn Press Definition
kPa
Hmdx Definition


Wind Chill Definition


Weather Definition


TIME
00:00 Legend Double Dagger -7.4 -8.3 93 34 18 24.1 100.86   -14 Mainly Clear
01:00 Legend Double Dagger -6.7 -7.5 94 35 23 24.1 100.91   -14 LegendNANA
02:00 Legend Double Dagger -7.3 -8.0 95 36 22 1.6 100.96   -15 Fog
03:00 Legend Double Dagger -8.9 -10.1 91 35 24 24.1 100.97   -17 Mostly Cloudy
04:00 Legend Double Dagger -10.2 -11.4 91 34 26 9.7 100.96   -19 Fog
05:00 Legend Double Dagger -10.8 -12.0 91 36 23 24.1 100.95   -19 LegendNANA
06:00 Legend Double Dagger -11.1 -12.3 91 36 26 24.1 100.92   -20 Mainly Clear
07:00 Legend Double Dagger -10.8 -12.0 91 36 25 24.1 100.96   -20 LegendNANA
08:00 Legend Double Dagger -10.3 -11.6 90 1 28 24.1 100.98   -20 LegendNANA
09:00 Legend Double Dagger -10.0 -11.3 90 2 31 24.1 100.99   -20 Mostly Cloudy
10:00 Legend Double Dagger -9.5 -10.9 90 1 26 3.2 101.01   -18 Snow,Blowing Snow
11:00 Legend Double Dagger -9.2 -10.7 89 36 27 3.2 100.99   -18 Snow,Blowing Snow
12:00 Legend Double Dagger -9.2 -10.6 90 1 28 2.4 101.03   -18 Snow,Blowing Snow
13:00 Legend Double Dagger -9.2 -10.8 88 1 31 3.2 101.05   -19 Snow,Blowing Snow
14:00 Legend Double Dagger -8.9 -10.7 87 1 29 4.8 101.05   -18 Snow,Blowing Snow
15:00 Legend Double Dagger -9.1 -11.2 85 1 34 9.7 101.05   -19 Snow,Blowing Snow
16:00 Legend Double Dagger -9.0 -10.9 86 36 32 6.4 101.09   -18 Snow,Blowing Snow
17:00 Legend Double Dagger -9.0 -10.9 86 1 31 16.1 101.11   -18 Snow
18:00 Legend Double Dagger -9.4 -11.5 85 1 32 16.1 101.15   -19 Snow
19:00 Legend Double Dagger -9.2 -11.0 87 1 31 9.7 101.19   -19 Snow
20:00 Legend Double Dagger -9.2 -10.8 88 1 28 4.8 101.19   -18 Snow,Blowing Snow
21:00 Legend Double Dagger -9.1 -10.9 87 1 26 9.7 101.22   -18 Snow,Blowing Snow
22:00 Legend Double Dagger -9.1 -10.9 87 1 26 9.7 101.25   -18 Snow,Blowing Snow
23:00 Legend Double Dagger -9.1 -11.0 86 1 24 8.1 101.27   -17 Snow

Notes on Data Quality.

Legend

  • E = Estimated
  • M = Missing
  • NA = Not Available
  • ‡ = Partner data that is not subject to review by the National Climate Archives
Date modified: